Theta_e
325 325 322 329 326 322 322 322 322 325 325 327 329 332 335 333 336 338 335 327 315 324 331 335 333 330 324 313 327 331 331 329 329 329 328 325 321 314 309 309 309 313 318 320 313 309 309 310 310
325 323 322 327 327 327 326 320 323 323 323 331 333 334 335 335 335 337 336 322 313 323 330 333 332 328 322 321 325 328 330 329 328 326 325 318 311 308 307 309 310 312 310 309 309 310 310 310 310
326 322 324 326 325 329 325 320 322 321 326 327 331 335 335 335 336 337 336 320 314 321 328 330 329 326 320 323 330 328 327 324 318 316 312 309 308 307 308 309 309 310 309 309 309 309 309 309 309
323 320 321 325 327 324 324 320 319 322 326 329 331 335 336 336 337 337 335 319 313 316 326 328 328 326 320 317 329 326 324 321 314 311 308 308 307 308 308 309 309 309 309 309 309 309 309 309 309
320 318 320 321 323 324 321 320 321 322 324 329 331 333 336 336 336 337 335 321 312 311 321 326 328 326 318 314 322 327 327 320 313 309 308 307 308 308 308 308 309 309 309 309 309 309 309 309 309
317 315 319 325 324 321 319 322 323 322 323 324 326 331 333 336 337 337 335 324 315 310 314 319 325 322 313 320 328 330 327 322 311 309 308 308 308 308 308 308 308 309 309 309 309 309 309 309 309
314 313 324 321 323 322 322 322 321 323 322 324 326 332 334 336 336 335 334 325 318 311 311 316 320 316 313 322 329 331 327 318 310 309 309 309 309 309 308 308 309 309 309 309 309 309 309 309 310
315 313 316 322 323 322 321 322 323 322 324 325 327 334 335 335 335 335 334 327 324 314 312 314 315 313 315 322 327 328 324 313 310 309 309 309 315 310 309 309 309 309 309 310 309 310 310 310 312
315 317 319 320 321 321 321 320 323 323 324 327 331 333 333 335 336 336 334 330 327 316 312 313 314 313 320 324 327 326 318 312 310 310 309 309 309 309 309 309 309 309 309 310 310 310 310 312 315
313 315 317 317 317 318 318 318 320 321 324 329 332 333 333 335 336 335 335 333 330 320 313 314 314 319 324 325 325 321 314 312 310 310 310 309 309 309 309 309 310 310 310 310 310 310 312 314 316
311 311 312 314 315 317 318 319 319 321 322 325 330 332 333 335 336 336 336 335 332 324 316 316 316 326 327 325 324 316 316 312 311 311 311 310 309 310 310 311 311 311 312 312 311 313 315 317 319
313 311 311 311 313 316 319 319 319 319 321 322 323 327 333 334 335 336 336 335 333 329 320 317 316 329 329 327 321 319 318 314 311 312 312 311 310 311 312 312 314 314 315 313 313 315 318 320 321
311 312 312 312 312 313 316 319 319 320 320 322 323 323 327 333 335 335 335 335 334 330 324 319 324 333 328 324 319 321 321 315 313 314 313 311 311 312 312 314 316 316 315 315 315 317 320 321 322
310 311 311 311 311 313 317 317 320 320 319 322 323 323 325 330 334 334 335 335 334 330 326 320 320 322 323 321 323 322 319 316 314 316 315 313 313 313 314 315 317 317 318 318 318 319 320 321 322
311 312 311 311 311 312 315 318 319 319 319 321 325 326 329 330 333 334 335 335 334 329 324 326 322 326 326 324 323 324 324 323 319 317 318 318 315 316 319 321 322 322 322 321 321 321 322 322 322
311 311 312 311 311 313 315 312 316 318 314 315 328 328 332 329 331 333 334 333 332 328 324 324 326 329 327 327 326 326 326 326 324 318 320 320 318 321 323 323 323 324 324 324 324 324 323 323 323
311 313 313 312 311 315 315 313 314 316 310 314 324 330 330 330 327 329 332 332 332 329 329 330 325 322 331 328 328 328 328 327 325 321 320 320 320 325 325 325 325 326 325 325 325 324 324 323 323
313 314 313 312 313 315 316 314 316 311 308 309 313 320 328 330 328 327 327 330 331 331 331 329 325 324 325 327 329 329 328 324 323 324 324 324 325 326 326 326 326 327 327 327 327 327 327 326 325
314 314 313 314 312 315 317 315 315 311 309 307 308 310 318 325 327 330 329 327 328 329 330 329 327 326 327 326 328 329 325 323 323 324 325 325 323 324 326 326 327 327 327 326 326 327 327 327 327
313 311 313 313 312 314 317 316 312 310 311 308 306 309 312 319 327 329 331 331 328 328 327 327 327 327 328 328 327 326 325 325 324 323 325 326 325 323 325 327 327 327 327 327 327 327 328 327 327
312 313 310 316 317 315 316 315 317 312 311 311 308 307 309 312 318 323 328 329 330 327 325 325 327 328 328 329 329 328 328 328 327 323 321 322 323 325 328 327 328 327 328 328 328 328 328 329 328
313 313 312 315 320 320 311 318 311 313 311 310 311 308 307 310 313 315 319 325 328 329 329 327 326 326 326 326 327 328 329 328 327 327 327 327 327 328 328 328 327 327 327 328 328 328 328 327 326
314 311 314 315 316 317 314 316 313 310 311 310 310 309 307 308 309 310 314 314 322 324 326 326 328 326 326 325 325 326 326 326 327 326 327 328 328 328 328 327 326 327 326 326 326 326 325 323 320
309 311 312 312 314 316 316 317 315 312 310 308 309 308 308 307 308 308 309 313 316 317 315 318 317 323 325 327 325 322 321 322 321 324 326 325 322 322 322 323 324 325 326 325 324 323 322 321 318
307 308 305 309 314 317 310 313 312 311 310 308 307 309 310 310 308 307 309 309 309 310 311 310 309 315 317 321 320 322 320 321 322 323 324 325 326 325 323 323 322 327 324 323 322 320 318 321 318
308 309 309 309 313 315 307 312 311 308 308 308 308 311 311 313 313 311 308 309 309 310 310 310 310 309 309 311 314 316 319 317 319 319 322 323 325 325 325 323 322 314 310 310 311 312 312 313 315
308 309 308 308 303 308 307 307 307 308 306 304 305 306 310 311 312 312 313 312 307 308 308 310 311 310 310 309 310 311 311 312 313 313 313 312 312 311 310 310 311 311 312 312 313 314 314 314 315
307 306 307 305 303 309 310 307 308 306 304 303 303 303 304 305 306 307 308 309 310 309 307 307 306 307 309 310 311 311 311 311 311 311 311 311 312 312 312 312 312 313 314 313 313 313 313 315 315
306 307 306 306 307 308 310 309 304 305 303 303 302 300 301 302 303 304 305 306 306 306 306 306 305 306 306 306 306 307 307 308 310 311 312 312 312 312 312 313 312 312 311 311 311 311 312 312 312
306 308 305 304 307 305 307 307 305 304 302 302 300 299 300 300 300 300 300 301 302 304 306 306 305 304 304 304 304 305 305 305 305 306 306 307 308 309 309 309 308 307 306 306 305 305 305 305 305
Wind_Speed
6 4 3 2 1 2 3 5 2 3 3 2 5 4 7 6 6 3 6 22 32 34 32 30 25 21 17 20 23 20 17 15 13 11 9 7 6 5 4 7 7 10 11 11 10 10 9 8 7
7 4 3 2 3 2 5 5 8 10 5 3 4 3 4 5 7 3 14 25 34 34 34 31 26 23 20 22 21 20 17 14 12 10 10 8 6 6 7 8 8 9 10 10 9 8 7 6 6
8 5 3 3 4 12 5 6 9 3 6 8 3 4 3 3 8 5 13 25 37 35 34 31 28 24 22 23 20 19 16 13 11 10 9 8 8 8 9 9 9 9 9 8 7 6 5 5 4
5 4 2 3 14 7 10 5 7 4 0 4 3 3 4 5 4 12 16 25 37 36 34 31 28 25 22 23 21 18 15 13 11 9 9 9 9 10 9 8 9 9 8 7 6 5 4 3 2
7 3 2 4 10 9 6 7 9 2 3 5 1 3 4 6 7 15 18 26 35 36 34 31 28 26 23 23 22 18 15 12 9 9 9 9 9 9 9 8 7 7 6 6 4 3 3 2 2
6 2 2 15 20 6 2 9 8 5 7 6 4 4 7 9 10 14 20 26 32 33 33 30 28 25 24 24 22 20 16 11 9 9 10 10 10 10 9 8 7 6 5 4 3 2 1 1 2
5 3 13 9 16 4 3 9 10 16 11 11 9 4 5 12 15 15 21 28 30 31 32 30 28 26 25 25 23 20 16 12 10 10 9 9 11 10 10 9 7 5 5 4 2 1 1 1 2
3 2 5 14 14 8 3 8 7 17 18 17 9 6 5 18 20 19 22 28 28 29 30 29 28 27 27 26 24 20 16 13 12 11 10 9 11 10 10 9 7 6 5 4 3 2 1 0 1
1 2 15 10 2 3 14 3 7 10 16 11 12 11 8 16 24 24 26 31 30 31 32 31 30 29 28 27 24 20 17 14 12 11 10 9 9 8 8 8 7 6 5 3 3 2 1 1 1
4 4 7 4 3 2 9 12 17 8 8 8 13 16 13 16 27 30 33 36 36 35 34 33 32 30 28 27 25 21 18 16 14 13 11 10 10 9 8 7 7 6 5 3 3 3 3 2 2
3 7 10 20 16 13 9 12 17 11 6 11 15 23 20 22 30 31 33 35 38 35 33 33 30 30 29 27 25 23 19 17 15 13 13 12 11 10 9 8 7 7 5 5 4 3 4 3 3
4 5 6 9 12 11 4 12 16 11 22 22 16 13 21 27 33 34 35 36 37 35 34 33 33 31 29 28 25 22 20 17 15 13 13 13 12 10 9 9 8 7 6 5 5 5 5 5 5
6 7 11 14 20 20 16 14 8 22 23 24 21 18 18 28 33 34 35 35 34 33 33 32 31 31 30 28 25 23 20 17 14 13 11 12 11 10 9 9 8 7 7 6 7 7 6 6 7
6 12 18 23 21 16 13 13 9 23 28 22 20 20 22 27 35 35 35 36 33 32 31 31 31 30 29 28 26 22 19 15 14 13 11 10 10 10 10 9 8 7 8 8 8 8 8 8 8
10 11 11 12 15 11 12 12 11 9 21 25 15 18 24 29 35 36 36 35 33 33 29 28 27 30 28 26 23 22 19 16 14 13 13 12 11 10 9 9 9 7 9 10 10 10 10 10 10
5 7 6 0 8 7 11 14 10 3 14 23 12 16 21 23 29 34 34 33 31 30 30 25 27 28 27 27 24 22 19 18 15 15 15 14 12 11 10 10 10 9 12 12 12 12 12 12 12
3 7 8 11 11 5 12 7 6 12 15 9 14 9 6 9 19 25 27 26 26 27 24 20 22 24 25 25 23 21 19 19 17 16 15 13 13 12 12 12 11 11 13 14 14 13 14 13 12
5 6 6 11 4 12 13 2 11 20 17 14 18 14 9 9 7 19 21 22 22 21 17 15 16 16 16 22 23 22 20 19 18 17 16 14 14 13 14 14 13 13 15 14 14 14 14 13 12
12 11 16 7 6 4 8 6 7 20 12 25 28 24 21 14 6 7 14 17 19 19 19 18 17 14 14 18 22 21 21 19 19 19 17 16 15 15 15 15 14 14 15 13 13 14 14 14 13
6 11 10 11 6 8 9 11 13 9 9 24 31 25 24 13 12 8 8 9 14 15 16 18 18 17 16 16 17 19 17 17 17 18 20 18 18 17 16 16 14 14 14 15 15 16 17 17 16
5 6 7 4 9 5 11 4 5 4 14 27 35 26 27 19 17 12 7 12 14 16 16 16 17 19 17 18 18 18 19 19 18 16 15 16 15 14 17 17 17 16 17 17 16 18 17 17 16
5 11 7 9 2 3 4 4 1 4 12 19 24 32 27 31 18 15 15 12 10 8 11 18 17 18 19 18 18 19 19 19 18 15 14 13 15 16 15 15 13 13 15 16 15 14 13 11 12
6 6 3 5 4 3 6 4 4 6 10 12 15 21 17 21 23 29 21 15 19 15 10 9 8 10 11 13 14 16 16 15 16 17 16 16 18 22 19 17 15 16 16 16 14 13 14 16 16
10 3 2 2 3 3 6 1 3 4 5 4 10 23 33 27 23 26 27 17 21 18 16 13 15 8 8 9 4 1 2 3 6 7 9 10 11 11 13 15 17 18 15 15 16 17 18 17 17
8 5 3 5 5 3 10 7 4 9 6 5 8 11 17 23 27 24 20 17 17 18 22 17 12 7 7 3 2 5 5 7 10 14 15 18 22 22 21 18 22 19 18 17 18 18 18 16 16
5 3 3 1 2 2 7 6 5 4 7 7 3 4 7 10 12 15 13 13 16 16 21 22 16 15 11 9 10 8 8 14 14 15 17 20 15 13 13 12 14 15 13 11 10 10 10 9 8
7 4 2 5 2 3 3 1 1 2 3 6 10 9 3 3 3 7 6 9 14 9 8 8 9 7 7 6 4 8 10 12 13 14 12 11 11 10 9 9 8 7 5 4 4 4 4 4 3
2 2 3 3 3 3 2 3 2 4 5 6 11 13 16 17 18 17 16 14 10 9 9 8 7 6 6 5 3 1 1 4 6 8 8 7 6 6 5 5 4 3 1 1 1 1 1 3 5
5 3 4 3 2 2 3 0 2 2 3 6 9 16 17 20 21 21 22 20 17 13 11 11 10 9 8 6 4 4 3 2 2 2 3 3 5 6 6 5 4 4 3 2 1 1 3 4 6
1 1 1 3 2 2 2 3 2 4 6 12 13 16 20 21 23 24 24 23 22 20 19 17 14 12 10 8 7 6 6 3 1 1 2 2 2 2 3 4 4 4 3 2 0 1 3 5 5
Wind_Direction
264 261 205 198 59 60 242 244 280 251 241 224 140 164 202 162 166 210 175 172 176 174 173 174 173 170 171 166 162 165 163 164 167 173 186 200 214 222 186 166 142 115 110 111 108 106 101 93 83
254 238 191 158 136 206 239 207 226 230 218 333 218 201 178 228 196 209 164 169 177 178 175 176 174 172 172 168 168 172 172 175 183 197 210 216 215 196 169 166 137 119 115 112 111 109 103 94 82
238 220 180 169 185 221 230 208 223 219 250 240 238 235 212 236 203 190 175 174 175 181 180 177 174 174 172 172 173 175 182 189 194 204 211 207 188 177 168 151 143 132 128 123 117 112 103 92 76
207 182 170 209 226 245 217 196 199 140 103 175 238 270 259 219 196 176 177 178 176 183 182 179 176 176 177 178 179 184 185 191 194 199 199 187 177 170 158 150 144 140 129 126 123 116 109 93 67
188 162 221 235 242 240 234 202 165 192 187 168 193 277 258 233 209 180 183 181 180 183 184 182 180 180 179 177 178 181 183 188 196 189 185 181 178 162 157 155 146 134 134 130 121 111 94 77 62
177 152 216 239 236 245 348 254 250 239 255 238 245 216 252 235 200 186 185 183 183 184 184 184 184 183 181 177 179 180 187 193 197 188 186 187 181 172 165 161 154 150 151 142 137 127 97 63 34
145 136 233 254 259 282 251 262 214 245 259 252 231 185 241 208 192 192 185 182 183 188 186 186 185 185 184 180 183 187 194 196 198 194 187 194 191 177 171 169 169 169 164 159 159 157 146 40 12
176 149 255 236 251 281 244 242 261 223 247 251 222 205 233 203 192 181 180 182 184 189 191 190 188 186 184 187 188 194 199 198 198 196 195 194 187 185 172 175 182 188 182 178 181 190 199 266 330
167 254 248 250 210 272 279 314 255 281 236 222 209 220 212 197 185 177 180 183 187 192 195 193 191 188 187 188 192 196 200 198 198 200 200 205 192 186 182 193 199 205 204 199 204 222 247 266 277
201 251 268 2 344 353 316 307 315 264 260 226 215 218 218 194 187 186 187 188 192 194 194 195 193 190 188 191 196 198 199 200 199 201 205 205 210 212 209 209 211 211 213 224 243 251 260 260 278
251 246 259 277 291 303 321 315 328 291 264 249 230 220 207 191 193 196 197 197 197 194 194 194 193 192 193 195 198 200 201 203 204 205 207 206 209 215 217 212 209 209 223 248 250 253 265 266 272
299 308 318 302 308 304 286 315 319 295 273 278 290 268 219 198 199 203 203 201 199 197 197 196 196 195 200 203 204 204 205 208 208 210 210 213 215 216 220 222 226 228 248 256 250 253 260 261 265
253 292 300 305 285 267 274 267 256 299 306 283 286 267 243 216 209 205 205 205 200 199 197 199 194 198 202 208 209 209 213 214 215 216 216 213 214 217 224 222 235 239 249 257 255 254 260 267 273
237 277 274 281 285 289 258 251 238 257 306 294 269 269 249 227 214 207 208 207 203 204 198 201 201 203 206 208 212 213 215 219 222 223 223 222 222 223 227 228 237 244 255 261 262 265 268 270 274
280 287 293 251 230 234 260 267 232 249 297 297 275 254 241 223 216 215 210 208 204 204 206 204 207 207 209 215 216 218 221 226 231 231 233 234 232 227 232 238 246 255 264 268 270 270 272 274 275
267 267 283 233 207 237 176 259 219 2 340 298 291 258 241 218 221 216 211 210 205 206 209 213 212 213 214 217 218 221 226 234 238 236 237 237 230 230 238 245 252 259 264 269 271 274 277 279 282
228 272 258 294 202 200 184 249 171 26 358 9 3 315 271 228 228 219 215 211 209 211 212 217 215 216 219 223 220 226 233 238 241 235 231 233 233 238 247 253 258 262 267 270 272 273 277 278 282
280 259 257 252 288 204 200 159 63 36 355 57 39 26 57 26 244 217 216 216 216 221 222 226 217 218 223 224 221 226 232 234 229 228 233 238 241 247 255 258 263 267 270 271 276 280 281 283 288
268 279 269 226 245 249 219 169 63 19 303 43 44 17 43 59 47 184 206 212 216 219 223 223 220 220 221 220 221 228 232 233 235 237 240 244 250 255 258 262 268 266 269 275 279 281 285 289 292
281 282 308 258 210 204 152 132 87 35 344 50 53 27 30 32 60 87 169 201 210 220 225 224 224 226 226 228 232 237 242 249 253 255 252 253 256 258 263 263 264 265 269 270 274 274 279 278 278
317 308 334 299 89 73 121 52 122 193 31 49 49 40 32 29 36 62 136 182 195 205 213 224 224 230 235 236 236 239 244 252 258 258 255 254 259 252 260 259 261 262 266 269 268 270 271 277 280
330 344 343 12 99 70 354 134 248 74 53 37 33 38 26 28 28 55 72 101 149 176 205 207 214 226 235 233 236 242 249 257 264 261 258 250 246 248 254 265 269 270 271 272 272 274 276 271 281
262 333 344 45 51 108 14 89 334 16 34 31 21 57 41 43 30 36 30 46 82 84 108 119 166 197 207 221 239 248 250 256 269 270 261 256 255 252 253 259 271 279 282 274 276 275 282 286 280
285 288 251 7 71 73 341 282 33 31 29 12 42 33 48 39 40 38 27 18 39 50 42 55 49 66 99 133 131 121 204 244 285 287 285 263 274 276 280 282 288 280 273 271 274 277 278 272 280
14 21 349 4 47 19 339 53 31 18 39 30 49 54 45 48 51 49 33 38 47 53 43 37 36 12 15 265 277 257 242 262 270 278 282 280 270 271 271 266 271 278 277 275 274 273 269 271 275
321 40 104 108 46 15 2 25 14 317 331 349 75 59 27 6 8 30 63 42 50 63 76 44 28 25 2 328 325 302 294 294 283 293 275 270 279 276 274 273 273 271 274 274 275 273 270 269 264
319 38 284 112 350 70 7 144 46 234 3 57 63 57 54 303 309 358 356 36 59 57 54 91 81 56 44 326 283 261 263 269 259 255 258 265 269 268 260 258 256 258 262 271 275 269 259 260 264
44 298 12 10 68 69 51 60 73 22 35 47 55 59 71 77 72 63 58 59 59 51 55 57 72 93 102 104 103 99 256 236 245 247 236 233 236 239 235 234 230 227 234 265 316 298 285 216 233
346 8 32 113 64 135 117 331 220 146 113 97 74 80 80 77 75 71 69 67 64 67 67 67 58 57 63 58 42 40 52 19 303 269 257 234 215 208 198 197 183 185 179 187 195 248 265 263 265
242 354 33 103 280 46 89 221 128 164 125 108 97 93 87 80 77 73 68 64 61 56 53 49 46 42 45 48 50 45 37 16 6 1 329 308 272 246 210 194 186 179 169 170 181 287 285 284 288